Wind_Speed
27 27 27 27 27 27 27 28 28 28 28 28 29 29 29 29 29 30 31 31 31 32 32 32 32 32 33 33 33 33 33 33 34 34 34 34 33 33 33 33 32 32 32
28 28 28 29 29 29 29 29 29 29 30 30 30 31 31 31 31 32 32 33 33 34 34 34 33 34 35 35 35 35 35 36 36 36 36 36 35 35 35 35 35 35 35
29 30 30 30 30 30 31 31 31 31 31 32 32 33 33 33 34 34 34 35 35 36 36 36 35 36 37 37 37 37 37 37 38 38 38 38 38 37 37 37 37 37 37
31 31 31 32 32 32 32 32 32 33 33 34 34 34 35 35 36 36 36 36 37 37 37 38 38 38 38 38 39 39 39 40 40 40 40 40 41 40 40 40 39 39 39
33 33 33 33 34 34 34 34 34 34 35 35 36 36 36 37 37 37 38 37 38 39 39 39 40 40 40 40 41 42 42 42 42 42 42 43 43 43 43 43 43 42 42
35 35 35 35 36 36 36 36 36 36 36 37 37 37 37 38 38 39 39 39 40 40 40 41 41 41 42 42 43 44 44 44 44 44 44 45 45 45 46 46 46 46 45
36 36 36 37 37 37 37 37 37 37 38 38 38 38 38 39 39 40 40 41 42 42 42 43 44 44 44 44 45 45 46 46 46 47 47 48 48 48 48 48 49 49 48
37 37 37 37 37 37 37 38 39 39 39 40 40 40 39 40 40 41 42 43 43 44 44 45 46 46 47 47 48 48 48 49 49 49 50 50 50 50 50 50 51 51 50
38 38 38 38 38 38 38 39 40 40 41 41 41 41 41 41 42 42 43 44 45 46 46 47 48 49 49 50 50 51 51 51 51 52 52 52 52 51 52 52 52 52 52
38 39 39 39 39 39 39 40 41 41 42 42 43 43 43 43 43 43 43 44 45 46 47 48 49 50 50 51 52 53 53 54 53 54 54 54 54 54 54 54 54 54 54
40 40 40 40 41 41 40 41 41 42 42 42 43 44 43 43 44 44 44 44 45 46 47 48 49 50 51 52 53 54 55 55 55 55 55 55 55 55 55 55 55 55 55
40 41 41 42 42 42 42 42 42 43 43 43 43 43 44 44 45 45 45 45 45 46 47 49 50 51 52 53 54 55 55 56 56 56 56 56 56 56 56 56 56 56 56
41 41 42 42 42 42 42 43 43 43 43 43 43 44 44 45 46 47 48 48 47 47 48 50 51 53 54 55 56 56 56 56 56 56 56 56 56 56 56 55 56 56 56
41 42 42 42 43 43 43 43 43 43 43 44 44 45 46 47 48 49 49 49 49 49 50 51 51 52 54 55 56 56 56 56 55 55 56 56 56 56 56 56 56 56 56
42 43 43 43 43 43 43 44 44 44 44 45 46 46 47 48 48 49 49 50 52 53 52 52 52 53 53 54 55 56 55 54 54 55 55 55 55 56 56 56 56 56 56
43 43 43 43 43 43 44 44 45 45 46 47 48 48 49 49 50 50 51 53 54 56 56 54 54 53 53 53 54 54 54 53 53 53 53 53 54 55 56 55 55 55 55
44 44 44 44 44 45 45 45 45 46 47 48 48 48 49 50 51 52 53 55 56 57 57 55 55 54 53 52 52 52 52 52 52 52 52 52 53 53 54 54 54 54 55
45 45 45 45 45 45 46 46 46 46 47 47 48 49 50 51 52 53 55 56 57 57 57 56 55 53 51 51 51 51 52 52 51 51 51 52 52 52 52 52 53 53 54
47 46 46 46 46 47 47 46 47 47 47 48 49 50 52 53 54 55 56 57 57 57 56 56 54 51 51 51 51 51 51 52 52 52 51 51 51 51 51 51 51 52 53
47 47 47 47 47 47 47 47 48 48 49 50 51 52 52 54 55 56 57 56 56 55 54 54 52 50 50 50 50 51 51 51 51 51 51 50 50 50 51 50 50 51 52
49 48 48 48 48 47 47 48 49 49 50 51 52 53 54 55 56 56 56 55 54 53 52 51 50 49 49 49 50 50 51 50 51 51 50 50 49 49 50 50 50 51 51
50 50 48 48 48 48 49 50 51 51 52 53 54 54 55 55 55 55 53 52 51 51 51 50 50 49 49 49 49 49 50 49 49 49 49 48 49 49 49 50 50 50 50
50 50 49 49 50 50 51 51 52 53 53 54 55 55 55 54 53 51 50 50 50 50 50 50 49 49 48 49 49 48 48 48 48 48 48 47 48 48 48 48 49 49 48
49 49 50 50 50 51 52 52 53 54 55 55 55 54 53 52 51 50 49 48 49 49 49 49 48 48 48 48 48 49 49 48 47 48 49 48 47 46 45 46 46 46 45
49 50 50 51 51 51 53 54 54 55 55 54 54 53 51 50 49 48 48 47 48 48 48 48 48 48 49 49 48 48 48 48 47 47 48 47 45 44 43 43 43 43 42
49 50 50 51 52 52 53 54 55 54 54 53 52 51 49 48 47 47 48 48 48 48 48 48 48 48 48 48 48 48 47 47 46 45 45 45 43 43 41 40 40 40 39
Wind_Direction
267 269 271 273 274 275 276 278 279 281 282 282 283 283 282 282 281 281 281 281 282 282 283 284 284 284 285 285 286 286 286 286 285 284 285 284 284 282 282 281 281 281 282
267 269 271 273 274 275 276 277 279 280 281 282 283 283 282 282 283 283 282 282 283 282 283 283 283 284 284 285 285 285 285 286 285 284 283 283 283 283 282 281 280 281 281
267 269 271 272 274 275 276 277 278 280 281 282 283 282 282 282 283 284 284 283 283 283 282 282 283 283 284 284 285 285 285 285 285 284 283 282 282 281 281 281 281 281 281
267 269 270 272 274 275 276 277 278 279 280 281 283 283 282 282 284 285 285 284 283 282 282 282 282 283 284 284 284 284 285 285 285 284 284 283 282 281 280 281 281 280 280
267 268 271 272 274 275 276 276 277 278 279 281 283 283 283 282 283 284 284 284 283 283 282 282 282 283 283 284 284 284 284 284 285 284 284 283 282 282 281 281 280 280 280
268 269 271 272 273 274 276 277 277 278 280 281 283 283 283 283 282 283 283 283 284 284 283 283 283 284 284 284 284 284 284 283 284 284 284 283 282 281 281 281 280 280 280
268 270 271 272 273 274 275 277 277 278 280 281 282 283 283 283 283 283 283 283 284 283 284 284 284 284 284 284 284 284 284 283 284 284 284 283 282 281 281 280 280 280 279
268 270 271 272 274 275 276 276 277 279 280 281 282 282 282 283 282 282 282 282 283 283 284 284 284 283 283 283 284 284 284 284 284 285 284 283 282 281 281 280 279 279 279
268 269 271 273 274 275 276 277 278 279 280 281 281 283 283 283 282 282 283 283 283 283 284 285 285 284 284 283 283 284 284 284 284 284 285 284 282 282 281 281 280 278 278
268 269 270 272 273 275 276 277 278 279 279 280 281 282 284 285 284 284 284 284 284 284 285 285 286 286 285 285 285 285 284 284 284 284 284 283 282 281 281 280 280 278 278
269 270 271 272 273 274 276 277 279 280 280 280 281 281 282 284 285 285 284 284 285 286 286 287 287 287 286 286 286 285 285 284 284 284 284 283 282 281 281 280 280 279 278
269 270 271 273 274 274 275 277 279 280 280 280 281 281 282 284 286 287 287 286 285 286 287 288 289 289 288 287 287 287 286 285 285 284 284 283 283 282 282 281 281 279 278
270 271 272 273 274 275 276 277 279 280 280 281 281 282 283 285 286 287 288 288 287 287 288 288 289 289 288 288 288 288 287 287 285 284 284 284 283 283 283 282 281 280 279
270 271 273 274 275 275 276 277 278 280 280 281 282 282 284 285 286 287 288 289 288 289 289 290 290 290 290 290 290 289 289 288 286 285 284 284 284 283 283 283 282 281 280
270 272 273 274 275 275 275 276 277 279 281 282 283 283 284 285 287 287 288 289 289 290 290 290 291 291 291 290 290 289 289 289 288 287 286 285 285 284 284 283 282 281 281
270 271 273 274 274 274 276 277 277 279 281 283 283 283 284 286 287 287 287 288 290 291 291 292 291 292 291 290 290 289 289 290 289 289 288 287 286 286 285 284 282 281 281
270 271 273 273 273 274 276 278 279 280 281 282 283 284 285 286 287 288 288 289 290 292 292 292 292 292 291 290 289 289 289 289 290 289 289 288 288 287 286 284 283 282 281
271 272 272 272 273 274 276 278 279 281 282 283 284 285 286 287 288 288 289 290 291 292 292 292 292 291 290 290 290 289 289 290 290 290 290 290 289 288 287 286 284 284 283
270 271 272 272 273 275 276 278 280 281 283 284 286 286 287 287 288 289 290 291 291 292 292 292 292 290 290 290 290 290 290 290 290 290 291 290 290 289 288 287 286 285 285
270 271 271 272 273 274 276 278 280 282 284 285 287 287 287 288 289 290 291 291 292 292 292 292 292 291 291 290 290 291 291 291 291 291 291 291 290 289 288 286 286 286 286
270 271 271 272 273 275 277 279 281 283 285 286 287 288 288 289 290 290 291 291 291 291 292 292 292 292 292 291 291 291 291 291 292 292 291 291 290 289 288 287 287 287 287
270 270 271 273 274 275 277 280 282 283 285 287 288 288 289 289 289 290 290 290 291 292 292 293 292 292 292 292 293 292 292 292 292 292 292 291 291 291 290 289 288 288 287
269 270 271 273 274 276 278 280 282 284 286 287 288 288 289 289 289 289 289 290 291 292 292 293 292 292 293 293 293 293 293 294 294 294 293 293 292 292 291 290 289 288 287
269 271 272 273 275 277 278 281 283 284 286 287 287 287 288 288 288 289 289 290 291 292 292 292 292 292 292 293 293 293 294 294 294 296 295 295 294 293 292 292 291 291 290
270 271 273 274 275 277 279 281 283 284 286 286 287 286 286 287 287 288 289 289 290 291 291 291 292 292 292 293 294 294 294 294 295 296 295 295 294 294 293 293 292 292 291
272 273 274 275 277 278 280 281 283 284 285 285 285 285 286 286 286 287 288 289 290 291 291 292 292 292 293 293 294 294 295 295 296 296 296 295 295 295 293 293 293 292 291
Height
5831 5832 5832 5833 5833 5833 5833 5833 5833 5833 5832 5831 5831 5830 5830 5829 5829 5828 5827 5827 5826 5826 5825 5824 5823 5822 5821 5820 5819 5818 5817 5816 5815 5814 5813 5812 5811 5810 5809 5809 5808 5807 5806
5825 5826 5827 5827 5827 5827 5827 5827 5827 5826 5826 5825 5824 5824 5823 5823 5822 5821 5821 5820 5819 5818 5817 5817 5816 5815 5813 5812 5811 5810 5809 5808 5807 5806 5805 5804 5803 5802 5801 5801 5800 5799 5799
5819 5820 5821 5821 5821 5821 5821 5820 5820 5820 5819 5818 5818 5817 5816 5816 5815 5814 5813 5812 5812 5811 5810 5809 5808 5807 5806 5804 5803 5802 5801 5800 5798 5797 5796 5795 5795 5794 5793 5792 5791 5791 5790
5813 5814 5814 5814 5814 5814 5814 5813 5813 5813 5812 5811 5810 5810 5809 5808 5807 5806 5805 5804 5803 5802 5801 5800 5800 5798 5797 5796 5794 5793 5792 5790 5789 5788 5787 5786 5785 5784 5783 5782 5782 5781 5780
5806 5807 5807 5807 5807 5807 5807 5806 5806 5805 5805 5804 5803 5802 5801 5800 5799 5798 5797 5796 5795 5794 5792 5791 5790 5789 5788 5787 5785 5784 5782 5781 5779 5778 5777 5776 5774 5773 5772 5772 5771 5771 5770
5799 5799 5800 5799 5799 5799 5799 5798 5798 5797 5796 5795 5794 5793 5792 5792 5791 5790 5788 5787 5786 5784 5783 5782 5780 5779 5778 5776 5775 5773 5772 5770 5769 5767 5766 5765 5763 5762 5761 5760 5760 5759 5759
5791 5791 5791 5791 5791 5791 5791 5790 5789 5788 5787 5786 5785 5785 5784 5783 5782 5780 5779 5778 5776 5775 5773 5771 5770 5768 5767 5766 5764 5762 5760 5759 5757 5755 5754 5752 5751 5750 5749 5748 5747 5747 5746
5783 5783 5783 5783 5783 5782 5782 5781 5780 5779 5778 5777 5776 5775 5775 5775 5773 5771 5770 5768 5767 5765 5763 5761 5759 5757 5756 5754 5752 5750 5748 5747 5745 5743 5741 5739 5738 5737 5735 5734 5734 5733 5733
5774 5774 5774 5774 5774 5774 5773 5772 5771 5770 5769 5768 5766 5765 5764 5764 5763 5763 5760 5758 5756 5755 5752 5750 5748 5746 5743 5741 5740 5737 5735 5733 5731 5729 5727 5725 5724 5722 5721 5720 5719 5719 5719
5765 5766 5766 5766 5765 5765 5764 5763 5762 5760 5759 5758 5756 5755 5753 5752 5751 5751 5750 5748 5745 5743 5741 5738 5736 5733 5731 5728 5726 5724 5721 5719 5717 5715 5713 5711 5709 5708 5706 5705 5704 5704 5704
5756 5756 5756 5756 5756 5755 5754 5753 5752 5750 5749 5747 5746 5745 5743 5741 5739 5738 5738 5737 5735 5732 5729 5727 5724 5721 5718 5715 5712 5709 5706 5704 5701 5699 5697 5695 5693 5692 5691 5690 5689 5688 5688
5747 5747 5747 5746 5746 5745 5744 5743 5742 5740 5738 5737 5736 5734 5733 5731 5729 5726 5725 5724 5723 5722 5718 5715 5711 5707 5704 5701 5697 5694 5691 5688 5686 5683 5681 5679 5678 5676 5675 5673 5673 5672 5672
5737 5737 5737 5736 5736 5735 5734 5733 5732 5730 5729 5727 5726 5724 5722 5720 5718 5715 5712 5711 5710 5709 5706 5703 5699 5694 5690 5686 5682 5679 5676 5673 5670 5667 5665 5663 5661 5660 5658 5657 5656 5656 5655
5728 5727 5727 5726 5725 5725 5724 5723 5722 5720 5719 5717 5715 5713 5711 5709 5706 5703 5700 5697 5696 5695 5694 5691 5686 5681 5676 5672 5667 5663 5660 5657 5654 5652 5649 5648 5646 5644 5642 5641 5640 5639 5638
5718 5717 5717 5716 5715 5714 5714 5713 5711 5710 5708 5707 5705 5702 5700 5698 5695 5692 5688 5685 5682 5679 5680 5678 5673 5668 5663 5658 5653 5649 5646 5643 5639 5637 5634 5632 5630 5628 5627 5625 5624 5623 5622
5708 5707 5706 5705 5705 5704 5703 5702 5701 5699 5698 5695 5693 5691 5689 5686 5683 5680 5677 5673 5669 5665 5663 5663 5659 5654 5649 5644 5640 5635 5632 5629 5625 5622 5620 5617 5615 5613 5611 5609 5608 5607 5605
5697 5697 5696 5695 5694 5693 5692 5691 5690 5688 5686 5684 5682 5680 5677 5674 5671 5668 5664 5661 5656 5651 5648 5648 5644 5640 5635 5631 5627 5622 5618 5615 5612 5609 5606 5603 5600 5598 5595 5593 5592 5590 5589
5687 5686 5685 5685 5684 5683 5682 5680 5679 5677 5675 5673 5670 5668 5665 5662 5659 5655 5651 5647 5643 5638 5633 5631 5630 5625 5621 5617 5613 5609 5605 5602 5599 5595 5592 5589 5586 5583 5580 5578 5576 5574 5572
5676 5675 5674 5674 5673 5672 5670 5669 5667 5665 5663 5661 5658 5655 5652 5649 5645 5642 5638 5634 5629 5625 5620 5616 5614 5611 5607 5603 5599 5596 5592 5589 5585 5581 5578 5575 5572 5569 5566 5563 5561 5559 5557
5664 5664 5663 5662 5661 5660 5659 5657 5656 5654 5652 5649 5646 5643 5639 5635 5631 5628 5624 5620 5615 5611 5607 5603 5600 5597 5594 5590 5586 5583 5580 5576 5572 5568 5565 5561 5558 5555 5552 5549 5547 5544 5542
5652 5651 5651 5650 5649 5648 5647 5645 5644 5642 5639 5637 5633 5630 5626 5622 5618 5614 5610 5606 5602 5598 5594 5590 5587 5584 5581 5577 5573 5570 5567 5564 5560 5556 5552 5548 5544 5541 5538 5534 5531 5529 5526
5640 5639 5639 5638 5637 5636 5635 5633 5631 5629 5627 5624 5620 5616 5612 5608 5605 5601 5597 5593 5589 5585 5581 5578 5575 5571 5568 5564 5560 5556 5553 5551 5549 5545 5539 5537 5531 5528 5524 5521 5517 5514 5511
5627 5627 5626 5626 5625 5624 5622 5620 5618 5616 5613 5610 5606 5603 5599 5595 5591 5588 5584 5581 5577 5572 5568 5565 5562 5559 5555 5552 5548 5545 5541 5537 5534 5530 5525 5524 5519 5515 5511 5506 5503 5499 5497
5615 5614 5614 5613 5612 5611 5609 5607 5605 5602 5600 5596 5593 5589 5585 5582 5578 5575 5572 5569 5565 5561 5556 5553 5550 5546 5543 5539 5535 5532 5528 5525 5522 5517 5511 5509 5506 5502 5498 5494 5490 5486 5483
5602 5601 5601 5600 5599 5598 5596 5593 5591 5589 5586 5583 5579 5576 5572 5569 5566 5562 5560 5557 5554 5550 5545 5541 5537 5534 5530 5526 5522 5519 5515 5512 5510 5506 5499 5495 5492 5489 5487 5483 5479 5474 5471
5589 5588 5588 5586 5585 5584 5582 5580 5577 5575 5573 5570 5567 5563 5560 5557 5554 5550 5547 5544 5542 5538 5534 5530 5526 5522 5518 5514 5510 5506 5502 5499 5495 5493 5489 5483 5480 5476 5475 5474 5469 5464 5460